Weather History for KSAA - April, 2014

Change the Weather History Date:

Tuesday, April 1, 2014

  Actual Average Record
Temperature  
Mean Temperature 36 °F -  
Max Temperature 41 °F 48 °F 50 °F (2015)
Min Temperature 30 °F 21 °F 30 °F (2014)
Degree Days  
Heating Degree Days 30    
Moisture  
Dew Point 29 °F    
Average Humidity 85    
Maximum Humidity 100    
Minimum Humidity 60    
Precipitation  
Precipitation 0.00 in - - ()
Sea Level Pressure  
Sea Level Pressure 29.75 in    
Wind  
Wind Speed 10 mph (SSE)    
Max Wind Speed 20 mph    
Max Gust Speed 33 mph    
Visibility 8 miles    
Events Snow , Thunderstorm    
Averages and records for this station are not official NWS values.
T = Trace of Precipitation, MM = Missing Value Source: NWS Daily Summary

Daily Weather History Graph

Daily Weather History Graph

Search for Another Location

Airport or City:

Trip Planner

Search our weather history database for the weather conditions in past years. The results will help you decide how hot, cold, wet, or windy it might be!

Date:

Astronomy

Apr. 01, 2014 Rise Set
Actual Time 6:50 AM MDT 7:32 PM MDT
Civil Twilight 6:22 AM MDT 8:00 PM MDT
Nautical Twilight 5:49 AM MDT 8:33 PM MDT
Astronomical Twilight 5:15 AM MDT 9:08 PM MDT
Moon 7:53 AM MDT (4/1) 9:59 PM MDT (4/1)
Length of Visible Light 13h 38m
Length of Day
12h 42m
Waxing Crescent, 5% of the Moon is Illuminated
Apr 1
Waxing Crescent
Apr 7
First Quarter
Apr 15
Full
Apr 22
Last Quarter
Apr 29
New

Hourly Weather History & Observations

Time (MDT) Temp. Windchill Dew Point Humidity Pressure Visibility Wind Dir Wind Speed Gust Speed Precip Events Conditions
12:15 AM 32.0 °F 23.0 °F 19.4 °F 60% 29.86 in 10.0 mi SSE 11.5 mph - N/A   Mostly Cloudy
12:35 AM 32.0 °F 24.8 °F 19.4 °F 60% 29.85 in 10.0 mi SSE 8.1 mph - N/A   Overcast
12:55 AM 32.0 °F 25.6 °F 21.2 °F 64% 29.85 in 10.0 mi South 6.9 mph - N/A   Overcast
1:15 AM 32.0 °F 22.5 °F 21.2 °F 64% 29.84 in 10.0 mi South 12.7 mph - N/A   Overcast
1:35 AM 32.0 °F 24.2 °F 23.0 °F 69% 29.84 in 10.0 mi South 9.2 mph - N/A   Overcast
1:55 AM 32.0 °F 25.6 °F 23.0 °F 69% 29.84 in 10.0 mi South 6.9 mph - N/A   Overcast
2:15 AM 32.0 °F 25.6 °F 23.0 °F 69% 29.83 in 10.0 mi South 6.9 mph - N/A   Overcast
2:35 AM 32.0 °F 26.4 °F 24.8 °F 75% 29.82 in 10.0 mi South 5.8 mph - N/A   Overcast
2:55 AM 32.0 °F 26.4 °F 24.8 °F 75% 29.81 in 10.0 mi South 5.8 mph - N/A   Overcast
3:15 AM 32.0 °F 23.6 °F 24.8 °F 75% 29.80 in 10.0 mi SSE 10.4 mph - N/A   Overcast
3:35 AM 32.0 °F 23.6 °F 26.6 °F 80% 29.80 in 10.0 mi SSE 10.4 mph - N/A   Overcast
3:55 AM 32.0 °F 24.2 °F 26.6 °F 80% 29.79 in 10.0 mi SSE 9.2 mph - N/A   Overcast
4:15 AM 32.0 °F 21.6 °F 28.4 °F 87% 29.79 in 7.0 mi SE 15.0 mph - N/A Snow Light Snow
4:35 AM 30.2 °F 21.3 °F 28.4 °F 93% 29.77 in 4.0 mi SE 10.4 mph - N/A Snow Light Snow
4:55 AM 30.2 °F 20.2 °F 28.4 °F 93% 29.77 in 3.0 mi SE 12.7 mph - N/A Snow Light Snow
5:15 AM 30.2 °F 21.3 °F 30.2 °F 100% 29.76 in 2.0 mi SE 10.4 mph - N/A Snow Light Snow
5:35 AM 30.2 °F 20.8 °F 30.2 °F 100% 29.76 in 5.0 mi SE 11.5 mph - N/A Snow Light Snow
5:55 AM 30.2 °F 20.2 °F 30.2 °F 100% 29.75 in 2.5 mi SSE 12.7 mph - N/A Snow Light Snow
6:15 AM 30.2 °F 20.8 °F 30.2 °F 100% 29.75 in 2.0 mi SSE 11.5 mph - N/A Snow Light Snow
6:35 AM 30.2 °F 19.3 °F 30.2 °F 100% 29.75 in 1.2 mi SSE 15.0 mph - N/A Snow Light Snow
6:55 AM 30.2 °F 19.8 °F 30.2 °F 100% 29.76 in 0.8 mi SSE 13.8 mph 18.4 mph N/A Snow Snow
7:15 AM 30.2 °F 20.8 °F 30.2 °F 100% 29.75 in 0.5 mi SSE 11.5 mph - N/A Snow Snow
7:35 AM 30.2 °F 22.6 °F 30.2 °F 100% 29.75 in 0.2 mi SSE 8.1 mph - N/A Snow Snow
7:55 AM 30.2 °F 22.6 °F 30.2 °F 100% 29.74 in 0.5 mi SE 8.1 mph - N/A Snow Snow
8:15 AM 30.2 °F 24.3 °F 30.2 °F 100% 29.74 in 1.0 mi SE 5.8 mph - N/A Snow Light Snow
8:35 AM 32.0 °F 25.6 °F 30.2 °F 93% 29.73 in 2.0 mi ESE 6.9 mph - N/A Snow Light Snow
8:55 AM 32.0 °F 27.5 °F 30.2 °F 93% 29.74 in 10.0 mi SE 4.6 mph - N/A   Overcast
9:15 AM 32.0 °F 23.0 °F 30.2 °F 93% 29.73 in 10.0 mi SE 11.5 mph - N/A   Overcast
9:35 AM 32.0 °F 23.0 °F 30.2 °F 93% 29.73 in 5.0 mi SE 11.5 mph 16.1 mph N/A Snow Light Snow
9:55 AM 32.0 °F 22.5 °F 30.2 °F 93% 29.72 in 10.0 mi SE 12.7 mph - N/A   Overcast
10:15 AM 33.8 °F 25.3 °F 30.2 °F 87% 29.72 in 10.0 mi SE 11.5 mph - N/A   Scattered Clouds
10:35 AM 35.6 °F 27.5 °F 30.2 °F 81% 29.72 in 10.0 mi SSE 11.5 mph - N/A   Clear
10:55 AM 35.6 °F 28.0 °F 30.2 °F 81% 29.72 in 10.0 mi SE 10.4 mph - N/A   Scattered Clouds
11:15 AM 37.4 °F 30.8 °F 30.2 °F 75% 29.71 in 10.0 mi SE 9.2 mph - N/A   Mostly Cloudy
11:35 AM 37.4 °F 31.4 °F 28.4 °F 70% 29.72 in 10.0 mi South 8.1 mph - N/A   Overcast
11:55 AM 37.4 °F 33.8 °F 30.2 °F 75% 29.73 in 10.0 mi SW 4.6 mph - N/A   Overcast
12:15 PM 37.4 °F 32.8 °F 30.2 °F 75% 29.73 in 10.0 mi SE 5.8 mph - N/A   Overcast
12:35 PM 35.6 °F 30.7 °F 30.2 °F 81% 29.73 in 10.0 mi SE 5.8 mph - N/A   Overcast
12:55 PM 37.4 °F 33.8 °F 32.0 °F 81% 29.72 in 10.0 mi ESE 4.6 mph - N/A   Overcast
1:15 PM 39.2 °F 34.2 °F 32.0 °F 75% 29.71 in 10.0 mi East 6.9 mph - N/A   Mostly Cloudy
1:35 PM 39.2 °F - 30.2 °F 70% 29.71 in 10.0 mi Calm Calm - N/A   Mostly Cloudy
1:55 PM 39.2 °F 31.6 °F 30.2 °F 70% 29.71 in 10.0 mi WSW 12.7 mph 16.1 mph N/A   Mostly Cloudy
2:15 PM 35.6 °F 26.6 °F 32.0 °F 87% 29.71 in 5.0 mi WSW 13.8 mph 25.3 mph N/A Snow Light Snow
2:35 PM 41.0 °F 34.7 °F 32.0 °F 70% 29.70 in 10.0 mi South 10.4 mph - N/A   Mostly Cloudy
2:55 PM 39.2 °F 30.5 °F 32.0 °F 75% 29.70 in 10.0 mi WSW 16.1 mph 25.3 mph N/A   Mostly Cloudy
3:15 PM 41.0 °F 35.8 °F 30.2 °F 65% 29.70 in 10.0 mi SW 8.1 mph - N/A Thunderstorm Mostly Cloudy
3:35 PM 37.4 °F 29.8 °F 30.2 °F 75% 29.72 in 5.0 mi SW 11.5 mph 19.6 mph N/A   Mostly Cloudy
3:55 PM 37.4 °F 27.8 °F 30.2 °F 75% 29.72 in 10.0 mi West 17.3 mph 21.9 mph N/A   Mostly Cloudy
4:15 PM 35.6 °F 27.1 °F 30.2 °F 81% 29.72 in 10.0 mi West 12.7 mph 19.6 mph N/A   Mostly Cloudy
4:35 PM 33.8 °F 22.5 °F 32.0 °F 93% 29.71 in 7.0 mi West 19.6 mph 33.4 mph N/A   Overcast
4:55 PM 37.4 °F 30.8 °F 32.0 °F 81% 29.71 in 10.0 mi West 9.2 mph - N/A   Mostly Cloudy
5:15 PM 37.4 °F 30.8 °F 30.2 °F 75% 29.71 in 10.0 mi South 9.2 mph - N/A   Scattered Clouds
5:35 PM 35.6 °F 28.6 °F 32.0 °F 87% 29.71 in 2.5 mi SW 9.2 mph 18.4 mph N/A Snow Light Snow
5:55 PM 37.4 °F 32.1 °F 32.0 °F 81% 29.72 in 10.0 mi South 6.9 mph - N/A   Scattered Clouds
6:15 PM 37.4 °F 29.8 °F 28.4 °F 70% 29.73 in 10.0 mi SSW 11.5 mph 16.1 mph N/A   Scattered Clouds
6:36 PM 37.4 °F 29.3 °F 32.0 °F 81% 29.74 in 7.0 mi SSW 12.7 mph 16.1 mph N/A Snow Light Snow
6:55 PM 35.6 °F 27.5 °F 32.0 °F 87% 29.74 in 10.0 mi South 11.5 mph - N/A   Overcast
7:15 PM 33.8 °F 23.9 °F 32.0 °F 93% 29.76 in 7.0 mi West 15.0 mph 20.7 mph N/A Snow Light Snow
7:35 PM 33.8 °F 30.8 °F 32.0 °F 93% 29.75 in 10.0 mi WSW 3.5 mph - N/A   Overcast
7:55 PM 32.0 °F - 30.2 °F 93% 29.75 in 10.0 mi Calm Calm - N/A   Mostly Cloudy
8:15 PM 32.0 °F 26.4 °F 32.0 °F 100% 29.75 in 10.0 mi SE 5.8 mph - N/A   Overcast
8:35 PM 32.0 °F 22.5 °F 32.0 °F 100% 29.75 in 10.0 mi SE 12.7 mph - N/A   Overcast
8:55 PM 32.0 °F 23.0 °F 32.0 °F 100% 29.75 in 10.0 mi SE 11.5 mph - N/A   Mostly Cloudy
9:15 PM 32.0 °F 23.0 °F 32.0 °F 100% 29.75 in 10.0 mi SE 11.5 mph - N/A   Scattered Clouds
9:35 PM 32.0 °F 23.6 °F 32.0 °F 100% 29.75 in 10.0 mi ESE 10.4 mph - N/A   Mostly Cloudy
9:55 PM 32.0 °F 22.1 °F 30.2 °F 93% 29.75 in 10.0 mi ESE 13.8 mph - N/A   Overcast
10:15 PM 32.0 °F 23.0 °F 30.2 °F 93% 29.74 in 10.0 mi SE 11.5 mph - N/A   Overcast
10:35 PM 33.8 °F 24.8 °F 30.2 °F 87% 29.74 in 10.0 mi SSE 12.7 mph - N/A   Overcast
10:55 PM 33.8 °F 24.8 °F 30.2 °F 87% 29.74 in 10.0 mi SSE 12.7 mph - N/A   Overcast
11:15 PM 32.0 °F 24.8 °F 30.2 °F 93% 29.74 in 10.0 mi SSE 8.1 mph - N/A   Overcast
11:35 PM 32.0 °F 23.6 °F 30.2 °F 93% 29.73 in 10.0 mi SE 10.4 mph - N/A   Overcast